Location: Marcé
(47.5801°N, 0.3280°W)
Time: 20:43:46
(UTC+01:00)

Tiros 1 - Pass Details

Date: 09 December 2021
Orbit: 630 x 663 km, 48.4° (Epoch: 20 January)

Event Time Altitude Azimuth Distance (km) Brightness Sun altitude
Rises 16:49:11 0° 207° (SSW) 2,902 11.9 2.0°
Reaches altitude 10° 16:51:52 10° 193° (SSW) 2,000 10.6 1.6°
Maximum altitude 16:55:28 23° 141° (SE) 1,347 8.8 1.1°
Drops below altitude 10° 16:59:06 10° 90° (E) 2,018 9.2 0.6°
Sets 17:01:48 0° 76° (ENE) 2,935 9.9 0.3°
